Hourly Weather Cessnock

Today, 14 June, Monday

Time Temperature Precipitation Wind Pressure Humidity
00:00 +8°C° 0 mm 1 mps 755 mmHg 83%
01:00 +8°C° 0 mm 1 mps 755 mmHg 84%
02:00 +8°C° 0 mm 1 mps 755 mmHg 84%
03:00 +7°C° 0 mm 1 mps 754 mmHg 83%
04:00 +7°C° 0 mm 1 mps 754 mmHg 84%
05:00 +7°C° 0 mm 1 mps 754 mmHg 85%
06:00 +7°C° 0 mm 1 mps 755 mmHg 86%
07:00 +7°C° 0 mm 1 mps 755 mmHg 87%
08:00 +8°C° 0 mm 2 mps 755 mmHg 77%
09:00 +10°C° 0 mm 2 mps 755 mmHg 68%
10:00 +13°C° 0 mm 2 mps 755 mmHg 58%
11:00 +15°C° 0 mm 2 mps 754 mmHg 54%
12:00 +16°C° 0 mm 2 mps 754 mmHg 51%
13:00 +17°C° 0 mm 2 mps 754 mmHg 48%
14:00 +16°C° 0 mm 1 mps 753 mmHg 53%
15:00 +16°C° 0 mm 1 mps 753 mmHg 58%
16:00 +15°C° 0 mm 1 mps 753 mmHg 62%
17:00 +12°C° 0 mm 0 mps 754 mmHg 67%
18:00 +11°C° 0 mm 0 mps 754 mmHg 72%
19:00 +9°C° 0 mm 0 mps 755 mmHg 77%
20:00 +9°C° 0 mm 0 mps 755 mmHg 79%
21:00 +9°C° 0 mm 1 mps 755 mmHg 80%
22:00 +9°C° 0 mm 1 mps 755 mmHg 82%
23:00 +9°C° 0 mm 1 mps 755 mmHg 84%

Tomorrow, 15 June, Tuesday

Time Temperature Precipitation Wind Pressure Humidity
00:00 +8°C° 0 mm 1 mps 755 mmHg 86%
01:00 +8°C° 0 mm 1 mps 755 mmHg 88%
02:00 +8°C° 0 mm 1 mps 755 mmHg 89%
03:00 +7°C° 0 mm 1 mps 755 mmHg 90%
04:00 +7°C° 0 mm 1 mps 755 mmHg 91%
05:00 +7°C° 0 mm 1 mps 755 mmHg 91%
06:00 +7°C° 0 mm 1 mps 755 mmHg 91%
07:00 +7°C° 0 mm 1 mps 756 mmHg 91%
08:00 +9°C° 0 mm 1 mps 756 mmHg 80%
09:00 +12°C° 0 mm 1 mps 756 mmHg 70%
10:00 +14°C° 0 mm 1 mps 756 mmHg 59%
11:00 +15°C° 0 mm 1 mps 756 mmHg 56%
12:00 +16°C° 0 mm 1 mps 755 mmHg 52%
13:00 +19°C° 0 mm 1 mps 755 mmHg 49%
14:00 +18°C° 0 mm 1 mps 754 mmHg 53%
15:00 +18°C° 0 mm 1 mps 754 mmHg 58%
16:00 +16°C° 0 mm 1 mps 754 mmHg 62%
17:00 +14°C° 0 mm 1 mps 755 mmHg 68%
18:00 +12°C° 0 mm 0 mps 755 mmHg 73%
19:00 +10°C° 0 mm 0 mps 755 mmHg 78%
20:00 +9°C° 0 mm 0 mps 756 mmHg 80%
21:00 +10°C° 0 mm 1 mps 756 mmHg 82%
22:00 +10°C° 0 mm 1 mps 756 mmHg 84%
23:00 +9°C° 0 mm 1 mps 756 mmHg 85%

Day after tomorrow, 16 June, Wednesday

Time Temperature Precipitation Wind Pressure Humidity
00:00 +9°C° 0 mm 1 mps 756 mmHg 86%
01:00 +9°C° 0 mm 1 mps 756 mmHg 88%
02:00 +9°C° 0 mm 1 mps 756 mmHg 88%
03:00 +9°C° 0 mm 1 mps 756 mmHg 89%
04:00 +8°C° 0 mm 1 mps 756 mmHg 90%
05:00 +8°C° 0 mm 1 mps 756 mmHg 90%
06:00 +8°C° 0 mm 1 mps 756 mmHg 91%
07:00 +8°C° 0 mm 1 mps 757 mmHg 92%
08:00 +11°C° 0 mm 1 mps 756 mmHg 82%
09:00 +13°C° 0 mm 1 mps 756 mmHg 72%
10:00 +16°C° 0 mm 1 mps 756 mmHg 62%
11:00 +18°C° 0 mm 1 mps 755 mmHg 58%
12:00 +20°C° 0 mm 1 mps 755 mmHg 54%
13:00 +21°C° 0 mm 1 mps 754 mmHg 50%
14:00 +20°C° 0 mm 1 mps 754 mmHg 55%
15:00 +20°C° 0 mm 1 mps 753 mmHg 60%
16:00 +19°C° 0 mm 1 mps 753 mmHg 65%
17:00 +16°C° 0 mm 1 mps 753 mmHg 71%
18:00 +13°C° 0 mm 0 mps 753 mmHg 77%
19:00 +12°C° 0 mm 0 mps 753 mmHg 83%
20:00 +12°C° 0 mm 0 mps 753 mmHg 84%
21:00 +12°C° 0 mm 0 mps 752 mmHg 84%
22:00 +12°C° 0 mm 1 mps 752 mmHg 85%
23:00 +12°C° 0.5 mm 1 mps 751 mmHg 88%

17 June, Thursday

Time Temperature Precipitation Wind Pressure Humidity
00:00 +12°C° 0.5 mm 1 mps 751 mmHg 91%
01:00 +12°C° 0.5 mm 1 mps 750 mmHg 94%
02:00 +12°C° 0.4 mm 1 mps 750 mmHg 95%
03:00 +12°C° 0.4 mm 1 mps 750 mmHg 96%
04:00 +10°C° 0.4 mm 2 mps 750 mmHg 97%
05:00 +10°C° 0.1 mm 2 mps 750 mmHg 97%
06:00 +10°C° 0.1 mm 2 mps 751 mmHg 97%
07:00 +10°C° 0.1 mm 2 mps 751 mmHg 96%
08:00 +11°C° 0 mm 3 mps 751 mmHg 89%
09:00 +12°C° 0 mm 3 mps 751 mmHg 82%
10:00 +13°C° 0 mm 4 mps 751 mmHg 74%
11:00 +14°C° 0 mm 4 mps 751 mmHg 65%
12:00 +15°C° 0 mm 4 mps 750 mmHg 55%
13:00 +16°C° 0 mm 5 mps 750 mmHg 46%
14:00 +16°C° 0 mm 5 mps 750 mmHg 48%
15:00 +15°C° 0 mm 4 mps 750 mmHg 50%
16:00 +15°C° 0 mm 4 mps 750 mmHg 52%
17:00 +14°C° 0 mm 4 mps 750 mmHg 56%
18:00 +12°C° 0 mm 4 mps 751 mmHg 60%
19:00 +11°C° 0 mm 4 mps 751 mmHg 64%
20:00 +11°C° 0 mm 4 mps 751 mmHg 66%
21:00 +11°C° 0 mm 3 mps 751 mmHg 68%
22:00 +10°C° 0 mm 3 mps 751 mmHg 71%
23:00 +10°C° 0 mm 3 mps 751 mmHg 72%

18 June, Friday

Time Temperature Precipitation Wind Pressure Humidity
00:00 +10°C° 0 mm 3 mps 751 mmHg 74%
01:00 +9°C° 0 mm 2 mps 751 mmHg 75%
02:00 +9°C° 0 mm 2 mps 750 mmHg 78%
03:00 +8°C° 0 mm 2 mps 750 mmHg 80%
04:00 +8°C° 0 mm 2 mps 750 mmHg 82%
05:00 +8°C° 0 mm 2 mps 750 mmHg 84%
06:00 +7°C° 0 mm 2 mps 750 mmHg 85%
07:00 +7°C° 0 mm 2 mps 751 mmHg 87%
08:00 +9°C° 0 mm 2 mps 750 mmHg 78%
09:00 +12°C° 0 mm 3 mps 750 mmHg 69%
10:00 +14°C° 0 mm 3 mps 750 mmHg 60%
11:00 +14°C° 0 mm 3 mps 749 mmHg 58%
12:00 +15°C° 0 mm 4 mps 749 mmHg 57%
13:00 +15°C° 0 mm 4 mps 748 mmHg 55%
14:00 +14°C° 0.2 mm 4 mps 748 mmHg 65%
15:00 +13°C° 0.2 mm 3 mps 748 mmHg 74%
16:00 +11°C° 0.2 mm 3 mps 748 mmHg 83%
17:00 +11°C° 0 mm 3 mps 749 mmHg 84%
18:00 +10°C° 0 mm 3 mps 749 mmHg 86%
19:00 +9°C° 0 mm 2 mps 749 mmHg 87%
20:00 +9°C° 0 mm 3 mps 749 mmHg 87%
21:00 +9°C° 0 mm 3 mps 749 mmHg 86%
22:00 +8°C° 0 mm 4 mps 749 mmHg 85%
23:00 +8°C° 0 mm 4 mps 749 mmHg 84%

19 June, Saturday

Time Temperature Precipitation Wind Pressure Humidity
00:00 +7°C° 0 mm 4 mps 749 mmHg 84%
01:00 +7°C° 0 mm 4 mps 749 mmHg 83%
02:00 +7°C° 0 mm 4 mps 749 mmHg 83%
03:00 +7°C° 0 mm 4 mps 749 mmHg 83%
04:00 +8°C° 0 mm 3 mps 749 mmHg 82%
05:00 +8°C° 0.1 mm 3 mps 750 mmHg 83%
06:00 +8°C° 0.1 mm 3 mps 750 mmHg 83%
07:00 +9°C° 0.1 mm 3 mps 751 mmHg 84%
08:00 +10°C° 2.8 mm 3 mps 751 mmHg 88%
09:00 +10°C° 2.8 mm 3 mps 752 mmHg 91%
10:00 +11°C° 2.8 mm 3 mps 752 mmHg 95%
11:00 +12°C° 1 mm 3 mps 753 mmHg 89%
12:00 +13°C° 1 mm 4 mps 753 mmHg 83%
13:00 +15°C° 1 mm 4 mps 753 mmHg 78%
14:00 +14°C° 0.2 mm 4 mps 753 mmHg 76%
15:00 +14°C° 0.2 mm 4 mps 754 mmHg 75%
16:00 +14°C° 0.2 mm 4 mps 754 mmHg 73%
17:00 +13°C° 0.2 mm 4 mps 755 mmHg 77%
18:00 +12°C° 0.2 mm 3 mps 756 mmHg 81%
19:00 +11°C° 0.2 mm 3 mps 756 mmHg 85%
20:00 +11°C° 0.2 mm 3 mps 757 mmHg 86%
21:00 +11°C° 0.2 mm 3 mps 757 mmHg 87%
22:00 +10°C° 0.2 mm 3 mps 757 mmHg 88%
23:00 +10°C° 0.1 mm 3 mps 757 mmHg 87%
Show more

We Need Your Consent

Meteoprog and our Service Providers may store and access personal data such as cookies, device identifiers or other similar technologies on your device and process such data to personalise content and ads, as well as provide social media features and to analyse the traffic.

  • Store and/or access information on your device

    Cookies, device identifiers or other information can be stored or accessed on your device for the purposes indicated above.

  • Personalised ads and content, ad and content measurement, audience insights, and products development

    Ads and content can be personalised based on a profile. More data can be added to better personalise ads and content. Ad and content performance can be measured. Insights about the audience who saw the ads and content can be derived. Such data can be used to develop or improve user’s experience, systems and software.

By clicking ‘I Agree’ you will allow the use of indicated cookies, device identifiers, web beacons or other similar technologies. Your settings can be changed in the browser on your device.

For certain purposes, legitimate interests may be relied on, rather than consent. You can read more about this in our Privacy and Cookie Policy.